• In Hungary
  • List of Countries
  • For 7 days
  • Water Temperature
  • Satellite Maps
  • Weather Map
  • News
  • Weather Widgets
  • user-avatar
    Login

    Hourly Weather Trenton

    Today, 24 September, Monday

    Time Temperature Precipitation Wind Pressure Humidity
    00:00 +18°C° 0.2 mm 2 mps 767 mmHg 85%
    01:00 +18°C° 0.2 mm 2 mps 767 mmHg 85%
    02:00 +18°C° 0.4 mm 2 mps 767 mmHg 85%
    03:00 +18°C° 0.4 mm 3 mps 768 mmHg 84%
    04:00 +18°C° 0.4 mm 3 mps 768 mmHg 84%
    05:00 +18°C° 0.1 mm 3 mps 768 mmHg 83%
    06:00 +18°C° 0.1 mm 3 mps 769 mmHg 81%
    07:00 +18°C° 0.1 mm 4 mps 769 mmHg 80%
    08:00 +18°C° 0.1 mm 4 mps 770 mmHg 79%
    09:00 +18°C° 0.1 mm 4 mps 770 mmHg 77%
    10:00 +19°C° 0.1 mm 5 mps 771 mmHg 75%
    11:00 +19°C° 0.1 mm 5 mps 771 mmHg 72%
    12:00 +20°C° 0.1 mm 5 mps 771 mmHg 69%
    13:00 +20°C° 0.1 mm 5 mps 771 mmHg 67%
    14:00 +20°C° 0 mm 6 mps 770 mmHg 67%
    15:00 +20°C° 0 mm 6 mps 770 mmHg 68%
    16:00 +20°C° 0 mm 6 mps 770 mmHg 69%
    17:00 +19°C° 0 mm 6 mps 770 mmHg 70%
    18:00 +19°C° 0 mm 5 mps 770 mmHg 72%
    19:00 +19°C° 0 mm 5 mps 770 mmHg 74%
    20:00 +19°C° 0.3 mm 5 mps 771 mmHg 76%
    21:00 +19°C° 0.3 mm 6 mps 771 mmHg 79%
    22:00 +19°C° 0.3 mm 6 mps 771 mmHg 81%
    23:00 +19°C° 1 mm 5 mps 770 mmHg 83%

    Tomorrow, 25 September, Tuesday

    Time Temperature Precipitation Wind Pressure Humidity
    00:00 +19°C° 1 mm 5 mps 770 mmHg 86%
    01:00 +19°C° 1 mm 5 mps 770 mmHg 88%
    02:00 +19°C° 1 mm 5 mps 769 mmHg 89%
    03:00 +19°C° 1 mm 5 mps 769 mmHg 89%
    04:00 +20°C° 1 mm 5 mps 768 mmHg 90%
    05:00 +20°C° 1 mm 5 mps 768 mmHg 90%
    06:00 +20°C° 1 mm 5 mps 768 mmHg 90%
    07:00 +21°C° 1 mm 5 mps 768 mmHg 91%
    08:00 +22°C° 1.5 mm 5 mps 767 mmHg 89%
    09:00 +22°C° 1.5 mm 5 mps 767 mmHg 87%
    10:00 +23°C° 1.5 mm 5 mps 767 mmHg 86%
    11:00 +25°C° 1.7 mm 4 mps 766 mmHg 85%
    12:00 +25°C° 1.7 mm 4 mps 766 mmHg 85%
    13:00 +25°C° 1.7 mm 3 mps 765 mmHg 85%
    14:00 +25°C° 0.9 mm 3 mps 765 mmHg 85%
    15:00 +25°C° 0.9 mm 3 mps 764 mmHg 86%
    16:00 +25°C° 0.9 mm 2 mps 764 mmHg 86%
    17:00 +25°C° 0.7 mm 2 mps 764 mmHg 88%
    18:00 +25°C° 0.7 mm 2 mps 764 mmHg 90%
    19:00 +24°C° 0.7 mm 2 mps 764 mmHg 92%
    20:00 +24°C° 0.1 mm 2 mps 763 mmHg 93%
    21:00 +24°C° 0.1 mm 2 mps 763 mmHg 94%
    22:00 +24°C° 0.1 mm 2 mps 763 mmHg 94%
    23:00 +23°C° 0 mm 1 mps 762 mmHg 95%

    Day after tomorrow, 26 September, Wednesday

    Time Temperature Precipitation Wind Pressure Humidity
    00:00 +23°C° 0 mm 1 mps 762 mmHg 96%
    01:00 +23°C° 0 mm 1 mps 762 mmHg 97%
    02:00 +23°C° 0 mm 1 mps 761 mmHg 97%
    03:00 +23°C° 0 mm 1 mps 761 mmHg 97%
    04:00 +23°C° 0 mm 1 mps 760 mmHg 98%
    05:00 +23°C° 0 mm 1 mps 760 mmHg 97%
    06:00 +23°C° 0 mm 1 mps 760 mmHg 97%
    07:00 +24°C° 0 mm 1 mps 760 mmHg 96%
    08:00 +25°C° 0 mm 1 mps 759 mmHg 90%
    09:00 +27°C° 0 mm 2 mps 759 mmHg 83%
    10:00 +28°C° 0 mm 2 mps 759 mmHg 77%
    11:00 +29°C° 0 mm 2 mps 759 mmHg 72%
    12:00 +31°C° 0 mm 3 mps 758 mmHg 67%
    13:00 +33°C° 0 mm 3 mps 758 mmHg 62%
    14:00 +31°C° 0.7 mm 3 mps 757 mmHg 65%
    15:00 +30°C° 0.7 mm 3 mps 757 mmHg 68%
    16:00 +30°C° 0.7 mm 3 mps 756 mmHg 71%
    17:00 +29°C° 0.9 mm 3 mps 756 mmHg 75%
    18:00 +28°C° 0.9 mm 3 mps 756 mmHg 78%
    19:00 +26°C° 0.9 mm 3 mps 757 mmHg 81%
    20:00 +26°C° 0.2 mm 3 mps 757 mmHg 82%
    21:00 +26°C° 0.2 mm 3 mps 757 mmHg 82%
    22:00 +25°C° 0.2 mm 3 mps 757 mmHg 83%
    23:00 +25°C° 0 mm 3 mps 757 mmHg 84%

    27 September, Thursday

    Time Temperature Precipitation Wind Pressure Humidity
    00:00 +24°C° 0 mm 3 mps 758 mmHg 85%
    01:00 +24°C° 0 mm 3 mps 758 mmHg 86%
    02:00 +22°C° 0.1 mm 3 mps 758 mmHg 83%
    03:00 +21°C° 0.1 mm 3 mps 758 mmHg 80%
    04:00 +20°C° 0.1 mm 4 mps 759 mmHg 77%
    05:00 +19°C° 0 mm 3 mps 760 mmHg 75%
    06:00 +19°C° 0 mm 3 mps 760 mmHg 73%
    07:00 +18°C° 0 mm 3 mps 761 mmHg 71%
    08:00 +20°C° 0 mm 3 mps 761 mmHg 65%
    09:00 +21°C° 0 mm 3 mps 761 mmHg 60%
    10:00 +24°C° 0 mm 3 mps 762 mmHg 54%
    11:00 +25°C° 0 mm 2 mps 762 mmHg 51%
    12:00 +26°C° 0 mm 2 mps 761 mmHg 48%
    13:00 +27°C° 0 mm 2 mps 761 mmHg 44%
    14:00 +26°C° 0 mm 2 mps 761 mmHg 47%
    15:00 +26°C° 0 mm 2 mps 761 mmHg 49%
    16:00 +25°C° 0 mm 2 mps 761 mmHg 51%
    17:00 +24°C° 0.1 mm 3 mps 761 mmHg 57%
    18:00 +22°C° 0.1 mm 3 mps 761 mmHg 62%
    19:00 +21°C° 0.1 mm 3 mps 762 mmHg 67%
    20:00 +21°C° 0.2 mm 3 mps 761 mmHg 72%
    21:00 +20°C° 0.2 mm 2 mps 761 mmHg 77%
    22:00 +20°C° 0.2 mm 2 mps 761 mmHg 81%
    23:00 +20°C° 0.4 mm 2 mps 761 mmHg 84%

    28 September, Friday

    Time Temperature Precipitation Wind Pressure Humidity
    00:00 +20°C° 0.4 mm 2 mps 760 mmHg 86%
    01:00 +20°C° 0.4 mm 2 mps 760 mmHg 89%
    02:00 +20°C° 0.6 mm 2 mps 760 mmHg 90%
    03:00 +20°C° 0.6 mm 2 mps 759 mmHg 91%
    04:00 +20°C° 0.6 mm 2 mps 759 mmHg 91%
    05:00 +20°C° 0.6 mm 2 mps 759 mmHg 92%
    06:00 +20°C° 0.6 mm 2 mps 759 mmHg 92%
    07:00 +21°C° 0.6 mm 1 mps 760 mmHg 92%
    08:00 +22°C° 0.1 mm 1 mps 760 mmHg 90%
    09:00 +22°C° 0.1 mm 1 mps 760 mmHg 87%
    10:00 +23°C° 0.1 mm 1 mps 760 mmHg 84%
    11:00 +24°C° 0 mm 1 mps 760 mmHg 80%
    12:00 +25°C° 0 mm 1 mps 760 mmHg 75%
    13:00 +26°C° 0 mm 1 mps 760 mmHg 71%
    14:00 +26°C° 0.1 mm 2 mps 760 mmHg 69%
    15:00 +27°C° 0.1 mm 2 mps 760 mmHg 66%
    16:00 +27°C° 0.1 mm 3 mps 760 mmHg 64%
    17:00 +26°C° 0 mm 3 mps 760 mmHg 64%
    18:00 +24°C° 0 mm 3 mps 761 mmHg 64%
    19:00 +22°C° 0 mm 3 mps 762 mmHg 63%
    20:00 +21°C° 0 mm 3 mps 762 mmHg 61%
    21:00 +21°C° 0 mm 4 mps 762 mmHg 59%
    22:00 +20°C° 0 mm 4 mps 763 mmHg 58%
    23:00 +19°C° 0 mm 4 mps 763 mmHg 59%

    29 September, Saturday

    Time Temperature Precipitation Wind Pressure Humidity
    00:00 +18°C° 0 mm 4 mps 763 mmHg 60%
    01:00 +18°C° 0 mm 4 mps 764 mmHg 61%
    02:00 +17°C° 0 mm 4 mps 764 mmHg 61%
    03:00 +15°C° 0 mm 4 mps 765 mmHg 61%
    04:00 +16°C° 0 mm 3 mps 765 mmHg 61%
    05:00 +14°C° 0 mm 3 mps 766 mmHg 62%
    06:00 +14°C° 0 mm 3 mps 767 mmHg 62%
    07:00 +14°C° 0 mm 3 mps 767 mmHg 63%
    08:00 +16°C° 0 mm 3 mps 767 mmHg 56%
    09:00 +18°C° 0 mm 4 mps 768 mmHg 50%
    10:00 +19°C° 0 mm 4 mps 768 mmHg 43%
    11:00 +20°C° 0 mm 4 mps 768 mmHg 41%
    12:00 +20°C° 0 mm 3 mps 767 mmHg 39%
    13:00 +21°C° 0 mm 3 mps 767 mmHg 37%
    14:00 +21°C° 0 mm 3 mps 767 mmHg 39%
    15:00 +21°C° 0 mm 3 mps 767 mmHg 40%
    16:00 +21°C° 0 mm 3 mps 767 mmHg 42%
    17:00 +20°C° 0 mm 2 mps 767 mmHg 44%
    18:00 +19°C° 0 mm 2 mps 768 mmHg 47%
    19:00 +17°C° 0 mm 2 mps 768 mmHg 49%
    20:00 +18°C° 0 mm 1 mps 768 mmHg 51%
    21:00 +16°C° 0 mm 1 mps 768 mmHg 52%
    22:00 +15°C° 0 mm 0 mps 768 mmHg 54%
    23:00 +15°C° 0 mm 0 mps 768 mmHg 55%
    Show more

    3.3.7123123